Regional Weather Roundup
Issued by NWS

Home | Current Version | Previous Version | Graphics & Text | Print | Product List | Glossary On
Versions: 1 2 3 4 5 6 7 8 9 10 11 12 13 14 15 16 17 18 19 20 21 22 23 24 25 26 27 28 29 30 31 32 33 34 35 36 37 38 39 40 41 42 43 44 45 46 47 48 49 50
000
ASUS45 KPSR 300910
RWRAZ

ARIZONA REGIONAL HOURLY WEATHER ROUNDUP
NATIONAL WEATHER SERVICE PHOENIX AZ
200 AM MST SAT AUG 30 2014

NOTE: FAIR INDICATES FEW OR NO CLOUDS BELOW 12,000 FEET WITH NO
SIGNIFICANT WEATHER AND/OR OBSTRUCTIONS TO VISIBILITY.

AZZ001>003-036-301000-
NORTHWEST ARIZONA

CITY           SKY/WX    TMP DP  RH WIND       PRES   REMARKS
BULLHEAD CITY  CLEAR     88  37  16 CALM      29.72S
KINGMAN        CLEAR     75  32  20 VRB3      29.95S
$$

AZZ004>008-015-016-018-301000-
NORTH CENTRAL ARIZONA

CITY           SKY/WX    TMP DP  RH WIND       PRES   REMARKS
GRAND CANYON     N/A    N/A N/A N/A MISG        N/A
WILLIAMS       CLEAR     54  41  62 SE10      30.29S
PRESCOTT       PTCLDY    65  41  41 S8        30.10S
FLAGSTAFF      CLEAR     46  41  82 CALM      30.26F
PAYSON         CLEAR     66  37  34 CALM      30.12S
PAGE           CLEAR     72  31  22 S3        30.02F
$$

AZZ009>014-017-301000-
NORTHEAST ARIZONA

CITY           SKY/WX    TMP DP  RH WIND       PRES   REMARKS
WINSLOW        CLEAR     59  49  69 SE5       30.10S
SAINT JOHNS    PTCLDY    62  44  51 S6        30.15F
WINDOW ROCK    PTCLDY    49  34  56 CALM      30.24S
SHOW LOW       CLEAR     54  39  58 S5        30.23S
$$

AZZ023-301000-
GREATER PHOENIX AREA

CITY           SKY/WX    TMP DP  RH WIND       PRES   REMARKS
PHOENIX        CLEAR     88  49  25 E3        29.75S
BUCKEYE          N/A     82  46  28 E8        29.76S
LUKE AFB       NOT AVBL
DEER VALLEY    CLEAR     86  44  23 N7        29.78S
SCOTTSDALE     CLEAR     87  49  26 CALM      29.80S
MESA-GATEWAY   CLEAR     79  45  29 SE7       29.80S
$$

AZZ027-028-301000-
SOUTHWEST MARICOPA COUNTY AND PINAL COUNTY

CITY           SKY/WX    TMP DP  RH WIND       PRES   REMARKS
CASA GRANDE    CLEAR     79  39  24 CALM      29.81R
$$

AZZ503-504-507>509-301000-
SOUTHEAST ARIZONA

CITY           SKY/WX    TMP DP  RH WIND       PRES   REMARKS
TUCSON         CLEAR     78  47  33 SE10      29.92S
DAVIS-MONTHAN  CLEAR     76  46  33 SE9       29.91S
NOGALES        CLEAR     65  53  65 N3        30.02F
SIERRA VISTA   CLEAR     71  47  42 SW6       30.08S
DOUGLAS        PTCLDY    63  52  67 CALM      30.04F
SAFFORD        CLEAR     71  48  43 E5        29.95R
$$

AZZ020-021-025-026-031-301000-
SOUTHWEST ARIZONA

CITY           SKY/WX    TMP DP  RH WIND       PRES   REMARKS
YUMA           CLEAR     88  49  25 CALM      29.69S
$$

CAZ031-033-041-043-047-048-061-301000-
SOUTHERN CALIFORNIA

CITY           SKY/WX    TMP DP  RH WIND       PRES   REMARKS
DOWNTOWN L.A.  CLEAR     67  63  87 CALM      29.81F
L.A. AIRPORT   PTCLDY    68  64  87 CALM      29.82F
SAN DIEGO      MOCLDY    70  63  78 CALM      29.83F
BURBANK        CLEAR     69  60  73 E3        29.82F
ONTARIO        CLEAR     70  58  65 CALM      29.83F
RIVERSIDE      CLEAR     70  57  63 CALM      29.83F
PALM SPRINGS   CLEAR     91  42  18 VRB3      29.72F
EL CENTRO NAS  CLEAR     85  43  22 NW7       29.66F
IMPERIAL       CLEAR     83  51  33 NW6       29.66S
BLYTHE         CLEAR     83  44  25 CALM      29.69S
NEEDLES        CLEAR     89  34  14 CALM      29.73S
$$

NVZ020-UTZ003-301000-
SOUTHERN NEVADA-UTAH

CITY           SKY/WX    TMP DP  RH WIND       PRES   REMARKS
LAS VEGAS      PTCLDY    87  31  13 S12       29.77S
SALT LAKE CITY MOCLDY    74  44  34 SE17      29.90F
$$

NMZ009-TXZ055-301000-
NEW MEXICO-WEST TEXAS

CITY           SKY/WX    TMP DP  RH WIND       PRES   REMARKS
ALBUQUERQUE    CLEAR     69  42  37 N6        30.15R
EL PASO        PTCLDY    77  49  37 S3        30.03S
$$


........................KEY........................
SKY/WX - SKY CONDITION/WEATHER
TMP    - TEMPERATURE IN FAHRENHEIT
DP     - DEW POINT IN FAHRENHEIT
RH     - RELATIVE HUMIDITY IN PERCENT
WIND   - DIRECTION AND SPEED IN MILES PER HOUR (MPH)
VRB    - VARIABLE WIND DIRECTION
PRES   - MEAN SEA LEVEL PRESSURE IN INCHES OF MERCURY
         F - FALLING PRESSURE   R - RISING PRESSURE
         S - STEADY PRESSURE
VSB    - VISIBILITY IN MILES
HX     - HEAT INDEX IN FAHRENHEIT
WCI    - WIND CHILL INDEX IN FAHRENHEIT
TC     - TEMPERATURE IN CELSIUS WHICH IS ALSO KNOWN AS
         TEMPERATURE IN CENTIGRADE
AFB    - AIR FORCE BASE
         LUKE AFB IS LUKE AIR FORCE BASE
         DAVIS-MONTHAN IS DAVIS-MONTHAN AIR FORCE BASE
NAS    - NAVAL AIR STATION
         EL CENTRO NAS IS EL CENTRO NAVAL AIR STATION
N/A    - NOT AVAILABLE


USA.gov is the U.S. government's official web portal to all federal, state and local government web resources and services.